Moose, Wyoming, United States (83012)
Lat: 43.66N, Lon: 110.72W
Wx Zone: WYZ013
Local Info
Past Weather Observations for Wednesday, May 25, 2016

NOTE: This archive is for the closest National Weather Service station to Moose. Information may differ from the station used for current weather conditions.

Click here for Long-term Archive

Time Weather Temperature Dewpoint Humidity Pressure Winds Precip Visibility
23:55
Partly Cloudy
39°F / 4°C 37°F / 3°C 93% 30.09 in
(1019 mb)
Calm - 10SM
23:35
Clear
37°F / 3°C 37°F / 3°C 100% 30.09 in
(1019 mb)
SSW 4.6 mph
(SSW 7 kph)
- 10SM
23:15
Clear
39°F / 4°C 37°F / 3°C 93% 30.09 in
(1019 mb)
Calm - 10SM
22:55
Clear
37°F / 3°C 37°F / 3°C 100% 30.09 in
(1019 mb)
SSW 5.8 mph
(SSW 9 kph)
- 10SM
22:35
Clear
41°F / 5°C 39°F / 4°C 93% 30.09 in
(1019 mb)
SW 3.5 mph
(SW 6 kph)
- 10SM
22:15
Clear
41°F / 5°C 39°F / 4°C 93% 30.09 in
(1019 mb)
Calm - 10SM
21:55
Partly Cloudy
39°F / 4°C 37°F / 3°C 93% 30.09 in
(1019 mb)
Calm 0.02 in
(0.51 mm)
10SM
21:35
Overcast
43°F / 6°C 39°F / 4°C 87% 30.09 in
(1019 mb)
NE 4.6 mph
(NE 7 kph)
0.02 in
(0.51 mm)
10SM
21:15
Overcast
45°F / 7°C 41°F / 5°C 87% 30.09 in
(1019 mb)
NNE 6.9 mph
(NNE 11 kph)
- 10SM
20:55
Mostly Cloudy
43°F / 6°C 39°F / 4°C 87% 30.09 in
(1019 mb)
NNW 4.6 mph
(NNW 7 kph)
- 10SM
20:35
Mostly Cloudy
43°F / 6°C 37°F / 3°C 81% 30.09 in
(1019 mb)
Calm - 10SM
20:15
Mostly Cloudy
45°F / 7°C 37°F / 3°C 76% 30.09 in
(1019 mb)
SW 3.5 mph
(SW 6 kph)
- 10SM
19:55
Mostly Cloudy
45°F / 7°C 37°F / 3°C 76% 30.06 in
(1018 mb)
W 6.9 mph
(W 11 kph)
- 10SM
17:55
Mostly Cloudy
48°F / 9°C 39°F / 4°C 71% 30.06 in
(1018 mb)
Variable 4.6 mph
(Variable 7 kph)
- 10SM
14:46
Mostly Cloudy
Showers In Vicinity
54°F / 12°C 37°F / 3°C 54% 30.04 in
(1017 mb)
S 13.8 mph
(S 22 kph)
- 10SM
14:00
Mostly Cloudy
52°F / 11°C 37°F / 3°C 58% 30.04 in
(1017 mb)
S 8.1 mph
(S 13 kph)
- 10SM
12:51
Mostly Cloudy
48°F / 9°C 39°F / 4°C 71% 30.04 in
(1017 mb)
SSW 5.8 mph
(SSW 9 kph)
- 10SM
12:10
Mostly Cloudy
Hail
46°F / 8°C 39°F / 4°C 76% 30.04 in
(1017 mb)
SSW 9.2 mph
(SSW 15 kph)
- 10SM
11:51
Mostly Cloudy
50°F / 10°C 43°F / 6°C 76% 30.04 in
(1017 mb)
S 9.2 mph
(S 15 kph)
- 10SM
10:45
Mostly Cloudy
Showers In Vicinity
50°F / 10°C 41°F / 5°C 71% 30.04 in
(1017 mb)
S 10.4 mph
(S 17 kph)
- 10SM
09:51
Mostly Cloudy
46°F / 8°C 43°F / 6°C 87% 30.04 in
(1017 mb)
SW 11.5 mph
(SW 19 kph)
- 10SM
08:49
Mostly Cloudy
45°F / 7°C 41°F / 5°C 87% 30.04 in
(1017 mb)
SSE 11.5 mph
(SSE 19 kph)
- 10SM
08:08
Mostly Cloudy
41°F / 5°C 41°F / 5°C 100% 30.04 in
(1017 mb)
SW 5.8 mph
(SW 9 kph)
- 10SM
07:56
Mostly Cloudy
41°F / 5°C 41°F / 5°C 100% 30.04 in
(1017 mb)
S 6.9 mph
(S 11 kph)
- 10SM
06:54
Overcast
Showers
39°F / 4°C 37°F / 3°C 93% 30.04 in
(1017 mb)
SSE 6.9 mph
(SSE 11 kph)
- 10SM
05:35
Overcast
39°F / 4°C 39°F / 4°C 100% 30.01 in
(1016 mb)
Calm - 10SM
05:15
Overcast
39°F / 4°C 39°F / 4°C 100% 30.01 in
(1016 mb)
SW 3.5 mph
(SW 6 kph)
- 10SM
04:55
Overcast
39°F / 4°C 39°F / 4°C 100% 30.01 in
(1016 mb)
Calm 0.06 in
(1.52 mm)
10SM
04:35
Mostly Cloudy
39°F / 4°C 39°F / 4°C 100% 30.01 in
(1016 mb)
SW 3.5 mph
(SW 6 kph)
0.02 in
(0.51 mm)
10SM
04:15
Overcast
39°F / 4°C 39°F / 4°C 100% 30.01 in
(1016 mb)
SW 4.6 mph
(SW 7 kph)
- 10SM
03:55
Overcast
39°F / 4°C 39°F / 4°C 100% 30.01 in
(1016 mb)
SW 3.5 mph
(SW 6 kph)
- 10SM
03:35
Overcast
39°F / 4°C 39°F / 4°C 100% 30.01 in
(1016 mb)
Calm - 10SM
03:15
Overcast
39°F / 4°C 39°F / 4°C 100% 29.98 in
(1015 mb)
Calm - 10SM
02:55
Overcast
39°F / 4°C 39°F / 4°C 100% 30.01 in
(1016 mb)
SW 4.6 mph
(SW 7 kph)
0.01 in
(0.25 mm)
10SM
02:35
Overcast
39°F / 4°C 39°F / 4°C 100% 30.01 in
(1016 mb)
SW 4.6 mph
(SW 7 kph)
0.01 in
(0.25 mm)
10SM
02:15
Mostly Cloudy
39°F / 4°C 39°F / 4°C 100% 30.01 in
(1016 mb)
SW 4.6 mph
(SW 7 kph)
- 10SM
01:55
Overcast
39°F / 4°C 37°F / 3°C 93% 29.98 in
(1015 mb)
S 4.6 mph
(S 7 kph)
0.01 in
(0.25 mm)
10SM
01:35
Overcast
39°F / 4°C 39°F / 4°C 100% 29.98 in
(1015 mb)
Calm - 10SM
01:15
Overcast
39°F / 4°C 39°F / 4°C 100% 29.98 in
(1015 mb)
Calm - 10SM
00:55
Overcast
39°F / 4°C 39°F / 4°C 100% 29.98 in
(1015 mb)
SSE 3.5 mph
(SSE 6 kph)
0.05 in
(1.27 mm)
10SM
00:35
Overcast
39°F / 4°C 39°F / 4°C 100% 30.01 in
(1016 mb)
S 3.5 mph
(S 6 kph)
0.03 in
(0.76 mm)
9SM
00:15
Overcast
39°F / 4°C 37°F / 3°C 93% 30.01 in
(1016 mb)
SSE 3.5 mph
(SSE 6 kph)
0.01 in
(0.25 mm)
10SM
Time Weather Temperature Dewpoint Humidity Pressure Winds Precip Visibility


Weather for websites

WeatherForYou.com, LLC is not responsible for any damages or problems caused by this service. Current weather conditions are obtained from the closest station including government and personal stations which may have varying degrees of accuracy. Weather forecasts are derived from the NOAA NDFD. Like all things, this site belongs to Jesus Christ... He just trusts us to maintain it. If you have any questions or comments email webmaster@weatherforyou.com

Copyright © 2016, WeatherForYou.com LLC. All rights reserved.